Location: Newark
(12.4436°N, 0.6167°W)
Time: 08:13:52
(UTC+00:00)

deb Explorer IX - Pass Details

Date: 15 December 2019
Orbit: 548 x 1101 km, 38.8° (Epoch: 24 January)

Event Time Altitude Azimuth Distance (km) Brightness Sun altitude
Rises 21:37:02 0° 306° (NW) 3,775 - -54.9°
Reaches altitude 10° 21:39:40 10° 304° (NW) 2,872 - -55.5°
Maximum altitude 21:46:47 73° 221° (SW) 1,140 - -57.1°
Drops below altitude 10° 21:54:03 10° 137° (SE) 2,925 - -58.7°
Sets 21:56:46 0° 135° (SE) 3,849 - -59.3°
